www.pogodaiklimat.ru

Погода и климат >> Архив погоды >> Индия >> Андхра-Прадеш >> Бапатла


ПОГОДА в Бапатле

  • Прогноз погоды в Бапатле
  • Монитор погоды в Бапатле

АРХИВ ПОГОДЫ в Бапатле

Время (UTC), дата Ветер
(напр.,м/с)
 
Видим.   Явления Облачность Т
(С)
Тd
(С)
f
(%)
Тe
(С)
Тes
(С)
Комфортность P
(гПа)
Po
(гПа)
Тmin
(С)
Tmax
(С)
R
(мм)
R24
(мм)
S
(см)
18 19.05 Ю 2 4000 м 1/1 600 м
[Sc]
+30.6 +27.2 82 +48 +48 опасность
перегрева
1007.7 1007.0
21 19.05 Ю 2 4000 м 3/3 600 м
[Sc]
+30.2 +27.1 84 +48 +48 опасность
перегрева
1006.4 1005.7
00 20.05 Ю 3 4000 м 8/4 600 м
[Sc diur, vesp Ac As]
+30.0 +27.2 85 +48 +48 опасность
перегрева
1006.0 1005.3
03 20.05 Ю 2 10 км 6/1 600 м
[Sc diur, vesp Ac trans Ci sp]
+32.6 +27.9 76 +53 +59 опасность
перегрева
1008.5 1007.8 +29.0 +36.4
06 20.05 Ю 3 10 км ясно +34.8 +27.1 64 +53 +70 опасность
перегрева
1008.2 1007.5
09 20.05 Ю 3 10 км 1/0
[Ci sp]
+35.2 +27.2 63 +53 +66 опасность
перегрева
1005.6 1004.9
12 20.05 ЮВ 3 10 км 3/0
[Ci sp]
+32.0 +28.1 80 +53 +54 опасность
перегрева
1004.8 1004.1 +36.0
15 20.05 Ю 3 4000 м 3/3 600 м
[Sc]
+31.0 +27.4 81 +49 +49 опасность
перегрева
1006.4 1005.7
18 20.05 Ю 3 4000 м 3/3 600 м
[Sc]
+30.6 +27.5 84 +49 +49 опасность
перегрева
1007.1 1006.4
21 20.05 Ю 2 4000 м 3/3 600 м
[Sc]
+30.2 +27.1 84 +48 +48 опасность
перегрева
1005.8 1005.1
00 21.05 Ю 1 4000 м 1/1 600 м
[Sc]
+30.2 +27.1 84 +48 +48 опасность
перегрева
1006.2 1005.5
03 21.05 ЮЗ 3 10 км 3/0
[Ci sp]
+32.8 +26.1 68 +49 +55 опасность
перегрева
1007.7 1007.0 +29.0 +36.0
06 21.05 Ю 3 10 км 4/3 600 м
[Sc diur, vesp Ci sp]
+35.0 +25.8 59 +50 +62 опасность
перегрева
1007.7 1007.0
09 21.05 ЮВ 3 10 км 3/1 600 м
[Sc Ci sp]
+35.0 +27.0 63 +53 +64 опасность
перегрева
1006.1 1005.4
12 21.05 Ю 3 10 км 1/1 600 м
[Sc diur, vesp]
+32.4 +28.0 78 +53 +54 опасность
перегрева
1005.0 1004.3 +36.1
15 21.05 Ю 2 4000 м 4/0
[Ac trans Ci sp]
+30.6 +27.0 81 +48 +48 опасность
перегрева
1006.2 1005.5
18 21.05 ЮВ 2 4000 м 1/0
[Ci sp]
+30.2 +26.8 82 +47 +47 опасность
перегрева
1007.5 1006.8
21 21.05 Ю 1 4000 м ясно +29.6 +26.5 83 +45 +45 опасность
перегрева
1006.1 1005.4
00 22.05 Ю 1 4000 м 3/1 600 м
[Sc Ac trans]
+29.4 +26.3 83 +45 +45 опасность
перегрева
1006.1 1005.4
03 22.05 Ю 2 10 км 3/1 600 м
[Sc Ci sp]
+32.4 +27.1 74 +51 +59 опасность
перегрева
1007.6 1006.9 +28.6 +36.1
06 22.05 Ю 3 10 км 4/3 600 м
[Sc Ci sp]
+34.6 +28.0 69 +56 +68 опасность
перегрева
1007.6 1006.9
09 22.05 Ю 5 10 км 3/1 600 м
[Sc Ci sp]
+34.0 +28.3 72 +55 +63 опасность
перегрева
1005.0 1004.3
12 22.05 Ю 4 10 км 1/1 600 м
[Sc diur, vesp]
+32.2 +27.8 78 +52 +53 опасность
перегрева
1004.4 1003.7 +35.4
15 22.05 Ю 3 4000 м 4/3 600 м
[Sc Ci sp]
+30.4 +26.5 80 +47 +47 опасность
перегрева
1006.2 1005.5
18 22.05 Ю 3 4000 м 1/0
[Ci sp]
+30.4 +27.0 82 +48 +48 опасность
перегрева
1006.8 1006.1
21 22.05 Ю 1 4000 м 3/3 600 м
[Sc]
+30.2 +27.1 84 +48 +48 опасность
перегрева
1004.8 1004.1
00 23.05 Ю 2 4000 м 3/3 600 м
[Sc]
+29.8 +27.0 85 +47 +47 опасность
перегрева
1005.4 1004.7
03 23.05 Ю 3 10 км 5/4 600 м
[Sc Ci sp]
+32.2 +28.6 81 +54 +58 опасность
перегрева
1008.0 1007.3 +28.7 +35.4
06 23.05 Ю 4 10 км 4/4 600 м
[Sc]
+34.2 +28.8 74 +58 +66 опасность
перегрева
1007.8 1007.1
09 23.05 ЮВ 4 10 км ясно +34.8 +27.7 67 +55 +65 опасность
перегрева
1005.1 1004.4
12 23.05 Ю 3 10 км ясно +32.0 +27.3 76 +50 +52 опасность
перегрева
1003.8 1003.1 +35.6
15 23.05 Ю 3 4000 м 3/3 600 м
[Sc]
+31.2 +27.6 81 +50 +50 опасность
перегрева
1005.9 1005.2
18 23.05 Ю 3 4000 м 3/3 600 м
[Sc]
+30.0 +26.9 84 +47 +47 опасность
перегрева
1006.7 1006.0
21 23.05 Ю 3 4000 м 3/3 600 м
[Sc]
+30.0 +27.2 85 +48 +48 опасность
перегрева
1006.2 1005.5
00 24.05 Ю 3 4000 м 3/3 600 м
[Sc]
+30.0 +27.2 85 +48 +48 опасность
перегрева
1006.6 1005.9
03 24.05 Ю 2 10 км 6/4 600 м
[Sc diur, vesp Ac trans]
+32.0 +28.7 83 +55 +59 опасность
перегрева
1008.6 1007.9 +29.1 +35.6
06 24.05 Ю 3 10 км 4/3 600 м
[Sc diur, vesp Ac trans]
+34.4 +29.0 74 +58 +70 опасность
перегрева
1007.4 1006.7
09 24.05 ЮВ 3 10 км 4/3 600 м
[Sc diur, vesp Ci sp]
+35.0 +28.5 69 +57 +66 опасность
перегрева
1004.7 1004.0
12 24.05 Ю 2 10 км 3/0
[Ci sp]
+32.6 +29.2 82 +56 +58 опасность
перегрева
1003.7 1003.0 +32.6
15 24.05 Ю 4 4000 м 3/3 600 м
[Sc]
+31.0 +27.4 81 +49 +49 опасность
перегрева
1005.2 1004.5
18 24.05 Ю 3 4000 м 3/3 600 м
[Sc]
+30.8 +27.7 84 +50 +50 опасность
перегрева
1005.9 1005.2
21 24.05 Ю 3 4000 м 3/3 600 м
[Sc]
+30.6 +27.5 84 +49 +49 опасность
перегрева
1004.8 1004.1
00 25.05 Ю 3 4000 м 4/4 600 м
[Sc]
+30.2 +27.1 84 +48 +48 опасность
перегрева
1004.8 1004.1
03 25.05 Ю 3 10 км 4/3 600 м
[Sc Ci sp]
+32.8 +30.4 87 +61 +66 опасность
перегрева
1006.2 1005.5 +28.8 +35.6
06 25.05 ЮВ 3 10 км 4/3 600 м
[Sc diur, vesp Ci sp]
+35.6 +30.5 75 +64 +77 опасность
перегрева
1005.0 1004.3
09 25.05 Ю 3 10 км ясно +37.0 +29.5 66 +62 +76 опасность
перегрева
1002.4 1001.7
12 25.05 ЮВ 3 10 км 3/1 600 м
[Cb cap Ci ing]
+34.0 +29.7 78 +60 +61 опасность
перегрева
1001.5 1000.8 +37.6
15 25.05 Ю 3 4000 м ясно +32.0 +28.7 83 +55 +55 опасность
перегрева
1002.8 1002.1
18 25.05 Ю 3 4000 м ясно +31.2 +28.1 84 +52 +52 опасность
перегрева
1004.0 1003.3
21 25.05 Ю 2 4000 м ясно +31.0 +27.9 84 +51 +51 опасность
перегрева
1002.5 1001.8
00 26.05 Ю 2 4000 м 3/1 600 м
[Sc Ac trans]
+31.0 +27.9 84 +51 +51 опасность
перегрева
1002.9 1002.2
03 26.05 Ю 3 10 км 3/1 600 м
[Sc Ci sp]
+33.6 +29.8 81 +60 +67 опасность
перегрева
1004.4 1003.7 +29.7 +37.6
06 26.05 Ю 2 10 км ясно +36.8 +30.1 69 +64 +85 опасность
перегрева
1003.7 1003.0
09 26.05 ЮВ 3 10 км ясно +37.0 +30.1 68 +64 +78 опасность
перегрева
1000.9 1000.2
12 26.05 Ю 3 10 км ясно +34.6 +30.6 80 +64 +65 опасность
перегрева
1000.1 999.4 +37.7
15 26.05 ЮВ 2 4000 м 1/0
[Ci sp]
+32.6 +29.1 82 +56 +56 опасность
перегрева
1002.8 1002.1

 

Местоположение метеостанции Бапатла (Андхра-Прадеш, Индия): широта 15.90 долгота 80.47 высота над уровнем моря 6 м.

В архиве по умолчанию представлена погода в Бапатле за последнюю неделю. Архивные данные за месяц целиком и за предыдущие месяцы, начиная с января 2011 года, Вы можете получить, выбрав интересующий диапазон дат из раскрывающегося списка и нажав кнопку "Ввод!".


*Определитесь, кто Вы:
робот инопланетянин человек

Внимание! Время в таблицах - всемирное. Для получения местного времени необходимо прибавить поправку, которая равна 5.5 ч.

Смотрите также архив погоды в соседних городах и на ближайших метеорологических станциях:

Погода в Онголе (Андхра-Прадеш, Индия) (63 км)
Погода в Ганнавараме (Андхра-Прадеш, Индия) (78 км)
Погода в Мачилипатнаме (Андхра-Прадеш, Индия) (80 км)
Погода в Нандигаме (Андхра-Прадеш, Индия) (100 км)
Погода в Рентчайнтале (Андхра-Прадеш, Индия) (122 км)
Погода в Кавали (Андхра-Прадеш, Индия) (123 км)
Погода в Нарсапере (Андхра-Прадеш, Индия) (144 км)
Погода в Кхаммаме (Телингана, Индия) (154 км)
Погода в Неллуру (Андхра-Прадеш, Индия) (170 км)
Погода в Налгонде (Телингана, Индия) (179 км)

Пояснения к столбцам:

Ветер - указаны скорость ветра в м/с - средняя за 10 мин, порывы в срок и между сроками (в фигурных скобках) и направление, откуда дует ветер: С - северный, СВ - северо-восточный, В - восточный, ЮВ - юго-восточный, Ю - южный, ЮЗ - юго-западный, З - западный, СЗ - северо-западный.
Видимость - горизонтальная дальность видимости в метрах или километрах. При видимости от 1 до 10 км при отсутствии осадков обычно наблюдается дымка, при ухудшении видимости до 1 км и менее - туман. В сухую погоду видимость может ухудшаться дымом, пылью или мглою.
Явления - указаны атмосферные явления, наблюдавшиеся в срок или в последний час перед сроком; фигурными скобками обозначены явления, наблюдавшиеся между сроками (за 1-3 часа до срока); квадратными скобками обозначены град или гололедные отложения с указанием их диаметра в мм.
Облачность - указаны через наклонную черту общая и нижняя облачность в баллах и высота нижней границы облаков в метрах; квадратными скобками обозначены формы облаков: Ci - перистые, Cs - перисто-слоистые, Cc - перисто-кучевые, Ac - высококучевые, As - высокослоистые, Sc - слоисто-кучевые, Ns - слоисто-дождевые, Cu - кучевые, Cb - кучево-дождевые. Подробнее классификацию облаков см. в Атласе облаков (PDF).
T - Температура воздуха - температура, измеренная на высоте 2 м над землей.
Td - Температура точки росы - температура, при понижении до которой содержащийся в воздухе водяной пар достигнет насыщения.
f - Относительная влажность воздуха - влажноcть воздуха, измеренная на высоте 2 м над землей.
Te - Эффективная температура - температура, которую ощущает одетый по сезону человек в тени. Характеристика душности погоды. При расчете учитывается влияние влажности воздуха и скорости ветра на теплоощущения человека.
Tes - Эффективная температура на солнце - температура, которую ощущает человек, с поправкой на солнечный нагрев. Характеристика знойности погоды. Зависит от высоты солнца над горизонтом, облачности и скорости ветра. Ночью, в пасмурную погоду, а также при ветре 12 м/с и более поправка равна нулю.
P - Атмосферное давление - приведенное к уровню моря атмосферное давление.
Po - Атмосферное давление - измеренное на уровне метеостанции атмосферное давление.
Tmin - Минимальная температура - минимум температуры воздуха на высоте 2 м над землей.
Tmax - Максимальная температура - максимум температуры воздуха на высоте 2 м над землей.
R - Количество осадков - Количество выпавших осадков за период времени, мм. При наведении курсора мыши на число - период времени, за который выпало указанное количество осадков.
R24 - Количество осадков - Количество выпавших осадков за 24 часа, мм.
S - Снежный покров - Высота снежного покрова, см. При наведении курсора мыши на число - состояние снежного покрова и степень покрытия местности в баллах.